Showing default

LEMUR 2 MYNAMEISJEFF, 62712

Orbit data source: Space-Track

LEMUR 2 MYNAMEISJEFF, 62712 is a payload satellite owned by Spire (US) in SSO that was launched on Tue, 14 Jan 2025 UTC via an FALCON 9 launch vehicle from the Air Force Western Test Range (AFWTR). Payload-class satellites include a variety of spacecraft equipped with specific instruments for various scientific and technological missions. These include communications satellites like Starlink; space stations such as the ISS; scientific satellites like the Hubble; Earth observation satellites from companies like Planet Labs, Umbra, and HawkEye 360; GPS; miniature CubeSats for education and research; and military/defense satellites.

Loading next visibility...
Identifier
62712, 2025-009DH
Orbit
SSO
Country
Flag of USUS
Related business
Manufacturer
Spire/Glasgow
Mission
Operational Commercial Com/MetRO
Bus & Motor
CUBESAT 3U, Unknown motor
Mass
7.6 kg wet, 7.6 kg dry
Launch date (UTC)
2025-01-14 (1 year ago)
Launch vehicle
FALCON 9
Launch site
Air Force Western Test Range (AFWTR)
Object type
Payload
Rocket body
Debris
Shape & HBR
Box + 2 Pan, 0.2 m
Radar Cross Section
0.063 m², Small (<0.1 m²)

Expand to show TLE details & history
Last TLE update: 10 hours ago

TLE from 10 hours ago
0 LEMUR 2 MYNAMEISJEFF
1 62712U 25009DH  26034.17727733  .00011700  00000-0  91279-3 0  9996
2 62712  97.7338 117.5582 0003537 299.2273  60.8597 15.01308847 57507
Epoch: 2026-02-03T04:15Z
TLE epoch observation values (Epoch: 2026-02-03T04:15:16.761Z)
Latitude
-0.00002°
Longitude
-79.62359°
Altitude
564.72 km
Speed
7.579 km/s
True Right ascension
07h 50m 13s
True Declination
0° 00' 00"
Sunlit
Object was in full shadow at epoch
Visualization orbit readout
Latitude
Unknown
Longitude
Unknown
Altitude
Unknown
Speed
Unknown
Apparent Right ascension
Unknown
Apparent Declination
Unknown
Sunlit
N/A
Visualization observer readout
Local Sidereal Time
16:30:05
Azimuth
Unknown
Elevation
Unknown
Doppler factor
Unknown
Orbital elements
Apogee altitude
562.318 km
Perigee altitude
557.41 km
Semi-major axis
6,938.001 km
Eccentricity
0.00035
Inclination
97.7338°
RAAN
117.5582°
Arg. of periapsis
299.2273°
True anomaly
60.89511°
Mean anomaly
60.8597°
Eccentric anomaly
60.8774°
Mean motion
3.75571 °/min
Orbital period
95.85 mins
BSTAR
0.00091279
Loading maneuver chart data...
Computing Atmospheric mass density...
Loading historical data...
Loading historical data...
Loading historical data...
Loading historical data...
Loading historical data...
Loading historical data...
Loading historical data...

Documentation

Showing up to 5 results
|